Wetterstation Vettwei-Soller: Standort 50 43' 54" Nord - 6 33' 24" Ost
Wetterdaten: aktuell Donnerstag, 01.12.2022 17:15
Datum Zeit Temp. A. Temp. A. min Temp. A. max Feuchte A. Luftdruck Regen Wind Richtung Richtung Sonnenschein Zeit Regen ET UV Solar Taupunkt Windchill Windben
01.12.2022 17:15 4,9 C 4,9 C 5,0 C 87 % 1026,5 hPa 0,0 l/m 4,2 km/h (1 Bft) O-NO 58 0 min 0 min 0,000 mm 0,0 UV-I 0 W/m 2,9 C 4,9 C 9,7 km/h (2 Bft)
01.12.2022 17:00 4,9 C 4,9 C 5,0 C 87 % 1026,4 hPa 0,0 l/m 4,1 km/h (1 Bft) N 5 0 min 0 min 0,000 mm 0,0 UV-I 0 W/m 2,9 C 4,9 C 8,0 km/h (2 Bft)
01.12.2022 16:45 5,0 C 4,9 C 5,0 C 87 % 1026,5 hPa 0,0 l/m 5,7 km/h (1 Bft) NO 35 0 min 0 min 0,000 mm 0,0 UV-I 0 W/m 3,0 C 3,8 C 16,1 km/h (3 Bft)
01.12.2022 16:30 4,9 C 4,9 C 5,0 C 87 % 1026,4 hPa 0,0 l/m 5,5 km/h (1 Bft) N 355 0 min 0 min 0,000 mm 0,0 UV-I 0 W/m 2,9 C 3,8 C 12,9 km/h (3 Bft)
01.12.2022 16:15 4,9 C 4,9 C 5,0 C 89 % 1026,4 hPa 0,0 l/m 4,8 km/h (1 Bft) N-NO 25 0 min 0 min 0,000 mm 0,0 UV-I 0 W/m 3,2 C 4,0 C 12,9 km/h (3 Bft)
01.12.2022 16:00 4,9 C 4,9 C 5,1 C 89 % 1026,3 hPa 0,0 l/m 7,1 km/h (2 Bft) N-NW 348 0 min 0 min 0,000 mm 0,0 UV-I 5 W/m 3,2 C 3,3 C 17,7 km/h (3 Bft)
01.12.2022 15:45 5,1 C 5,0 C 5,1 C 90 % 1026,2 hPa 0,0 l/m 5,5 km/h (1 Bft) N-NO 22 0 min 0 min 0,000 mm 0,0 UV-I 5 W/m 3,6 C 4,0 C 16,1 km/h (3 Bft)
01.12.2022 15:30 5,1 C 5,1 C 5,1 C 91 % 1026,3 hPa 0,0 l/m 5,5 km/h (1 Bft) N 10 0 min 0 min 0,000 mm 0,0 UV-I 14 W/m 3,8 C 4,0 C 12,9 km/h (3 Bft)
01.12.2022 15:15 5,1 C 5,1 C 5,1 C 91 % 1026,3 hPa 0,0 l/m 7,1 km/h (2 Bft) N-NO 18 0 min 0 min 0,000 mm 0,0 UV-I 16 W/m 3,8 C 3,5 C 16,1 km/h (3 Bft)
01.12.2022 15:00 5,1 C 5,1 C 5,2 C 92 % 1026,3 hPa 0,0 l/m 7,3 km/h (2 Bft) N 5 0 min 0 min 0,026 mm 0,0 UV-I 26 W/m 3,9 C 3,4 C 16,1 km/h (3 Bft)
01.12.2022 14:45 5,2 C 5,2 C 5,3 C 92 % 1026,4 hPa 0,0 l/m 6,2 km/h (2 Bft) O 85 0 min 0 min 0,000 mm 0,0 UV-I 18 W/m 4,0 C 3,9 C 14,5 km/h (3 Bft)
01.12.2022 14:30 5,2 C 5,2 C 5,2 C 93 % 1026,4 hPa 0,0 l/m 6,1 km/h (2 Bft) N-NO 32 0 min 0 min 0,000 mm 0,0 UV-I 33 W/m 4,2 C 3,9 C 12,9 km/h (3 Bft)
01.12.2022 14:15 5,2 C 5,2 C 5,2 C 93 % 1026,5 hPa 0,0 l/m 7,3 km/h (2 Bft) N 5 0 min 0 min 0,000 mm 0,0 UV-I 25 W/m 4,2 C 3,6 C 16,1 km/h (3 Bft)
01.12.2022 14:00 5,2 C 5,2 C 5,2 C 93 % 1026,6 hPa 0,0 l/m 8,5 km/h (2 Bft) N 360 0 min 0 min 0,000 mm 0,0 UV-I 21 W/m 4,2 C 3,2 C 17,7 km/h (3 Bft)
01.12.2022 13:45 5,2 C 5,2 C 5,3 C 93 % 1026,8 hPa 0,0 l/m 5,7 km/h (1 Bft) NO 38 0 min 0 min 0,000 mm 0,0 UV-I 21 W/m 4,2 C 4,1 C 16,1 km/h (3 Bft)
01.12.2022 13:30 5,2 C 5,2 C 5,3 C 93 % 1026,8 hPa 0,0 l/m 4,7 km/h (1 Bft) N-NW 346 0 min 0 min 0,000 mm 0,0 UV-I 7 W/m 4,2 C 4,4 C 11,3 km/h (2 Bft)
01.12.2022 13:19 5,2 C 5,2 C 5,3 C 93 % 1026,9 hPa 0,0 l/m 4,2 km/h (1 Bft) N-NO 19 0 min 0 min 0,000 mm 0,0 UV-I 19 W/m 4,2 C 5,2 C 12,9 km/h (3 Bft)
01.12.2022 13:00 5,2 C 5,2 C 5,3 C 94 % 1026,9 hPa 0,0 l/m 4,3 km/h (1 Bft) N 360 0 min 0 min 0,025 mm 0,0 UV-I 37 W/m 4,3 C 5,2 C 9,7 km/h (2 Bft)
01.12.2022 12:45 5,2 C 5,1 C 5,2 C 93 % 1026,9 hPa 0,0 l/m 4,3 km/h (1 Bft) NO 40 0 min 0 min 0,000 mm 0,0 UV-I 40 W/m 4,2 C 5,2 C 11,3 km/h (2 Bft)
01.12.2022 12:30 5,2 C 5,1 C 5,2 C 93 % 1027,1 hPa 0,0 l/m 4,6 km/h (1 Bft) N 355 0 min 0 min 0,000 mm 0,0 UV-I 32 W/m 4,2 C 4,5 C 12,9 km/h (3 Bft)
01.12.2022 12:15 5,2 C 5,1 C 5,2 C 94 % 1027,1 hPa 0,0 l/m 3,7 km/h (1 Bft) N-NW 334 0 min 0 min 0,000 mm 0,0 UV-I 25 W/m 4,3 C 5,2 C 8,0 km/h (2 Bft)
01.12.2022 12:00 5,1 C 5,1 C 5,2 C 94 % 1027,2 hPa 0,0 l/m 4,6 km/h (1 Bft) N-NO 13 0 min 0 min 0,000 mm 0,0 UV-I 32 W/m 4,2 C 4,4 C 12,9 km/h (3 Bft)
01.12.2022 11:45 5,1 C 5,1 C 5,2 C 94 % 1027,3 hPa 0,0 l/m 5,7 km/h (1 Bft) NW 319 0 min 0 min 0,000 mm 0,0 UV-I 19 W/m 4,2 C 3,9 C 12,9 km/h (3 Bft)
01.12.2022 11:30 5,1 C 5,1 C 5,2 C 94 % 1027,4 hPa 0,0 l/m 6,7 km/h (2 Bft) N-NO 22 0 min 0 min 0,000 mm 0,0 UV-I 16 W/m 4,2 C 3,6 C 16,1 km/h (3 Bft)
01.12.2022 11:15 5,2 C 5,1 C 5,2 C 94 % 1027,4 hPa 0,0 l/m 4,3 km/h (1 Bft) N 5 0 min 0 min 0,000 mm 0,0 UV-I 11 W/m 4,3 C 5,2 C 14,5 km/h (3 Bft)
01.12.2022 11:00 5,1 C 5,1 C 5,2 C 94 % 1027,5 hPa 0,0 l/m 4,5 km/h (1 Bft) N-NW 333 0 min 0 min 0,000 mm 0,0 UV-I 14 W/m 4,2 C 5,1 C 11,3 km/h (2 Bft)
01.12.2022 10:45 5,2 C 5,0 C 5,2 C 94 % 1027,5 hPa 0,0 l/m 3,4 km/h (1 Bft) N 5 0 min 0 min 0,000 mm 0,0 UV-I 16 W/m 4,3 C 5,2 C 8,0 km/h (2 Bft)
01.12.2022 10:30 5,1 C 4,9 C 5,1 C 94 % 1027,5 hPa 0,0 l/m 4,5 km/h (1 Bft) NW 313 0 min 0 min 0,000 mm 0,0 UV-I 23 W/m 4,2 C 5,1 C 9,7 km/h (2 Bft)
01.12.2022 10:15 4,9 C 4,9 C 5,0 C 94 % 1027,4 hPa 0,0 l/m 4,8 km/h (1 Bft) O-NO 69 0 min 0 min 0,000 mm 0,0 UV-I 23 W/m 4,0 C 4,0 C 12,9 km/h (3 Bft)
01.12.2022 10:00 4,9 C 4,8 C 4,9 C 94 % 1027,5 hPa 0,0 l/m 4,6 km/h (1 Bft) N 360 0 min 0 min 0,000 mm 0,0 UV-I 16 W/m 4,0 C 4,1 C 11,3 km/h (2 Bft)
01.12.2022 09:45 4,9 C 4,8 C 4,9 C 94 % 1027,4 hPa 0,0 l/m 5,8 km/h (2 Bft) N-NW 344 0 min 0 min 0,000 mm 0,0 UV-I 28 W/m 4,0 C 3,7 C 16,1 km/h (3 Bft)
01.12.2022 09:30 4,8 C 4,8 C 4,8 C 95 % 1027,3 hPa 0,0 l/m 4,3 km/h (1 Bft) N-NW 327 0 min 0 min 0,000 mm 0,0 UV-I 25 W/m 4,1 C 4,8 C 9,7 km/h (2 Bft)
01.12.2022 09:15 4,8 C 4,7 C 4,8 C 94 % 1027,2 hPa 0,0 l/m 4,2 km/h (1 Bft) N-NW 342 0 min 0 min 0,000 mm 0,0 UV-I 19 W/m 3,9 C 4,8 C 12,9 km/h (3 Bft)
01.12.2022 09:00 4,7 C 4,7 C 4,9 C 94 % 1027,2 hPa 0,0 l/m 5,0 km/h (1 Bft) N 355 0 min 0 min 0,000 mm 0,0 UV-I 11 W/m 3,8 C 3,7 C 12,9 km/h (3 Bft)
01.12.2022 08:45 4,9 C 4,8 C 4,9 C 95 % 1027,3 hPa 0,0 l/m 4,8 km/h (1 Bft) N 5 0 min 0 min 0,000 mm 0,0 UV-I 5 W/m 4,2 C 4,0 C 11,3 km/h (2 Bft)
01.12.2022 08:30 4,8 C 4,8 C 4,9 C 95 % 1027,2 hPa 0,0 l/m 4,4 km/h (1 Bft) N 360 0 min 0 min 0,000 mm 0,0 UV-I 0 W/m 4,1 C 4,8 C 12,9 km/h (3 Bft)
01.12.2022 08:15 4,9 C 4,9 C 5,1 C 95 % 1027,1 hPa 0,0 l/m 4,7 km/h (1 Bft) N-NW 333 0 min 0 min 0,000 mm 0,0 UV-I 0 W/m 4,2 C 4,1 C 12,9 km/h (3 Bft)
01.12.2022 08:00 5,0 C 5,0 C 5,1 C 95 % 1027,0 hPa 0,0 l/m 5,1 km/h (1 Bft) N-NO 26 0 min 0 min 0,000 mm 0,0 UV-I 0 W/m 4,3 C 4,0 C 12,9 km/h (3 Bft)
01.12.2022 07:45 5,1 C 5,0 C 5,1 C 94 % 1026,9 hPa 0,0 l/m 6,3 km/h (2 Bft) N-NW 327 0 min 0 min 0,000 mm 0,0 UV-I 0 W/m 4,2 C 3,7 C 14,5 km/h (3 Bft)
01.12.2022 07:30 5,1 C 5,1 C 5,1 C 95 % 1026,8 hPa 0,0 l/m 5,5 km/h (1 Bft) N-NW 336 0 min 0 min 0,000 mm 0,0 UV-I 0 W/m 4,4 C 4,0 C 14,5 km/h (3 Bft)
01.12.2022 07:15 5,1 C 5,1 C 5,2 C 94 % 1026,7 hPa 0,0 l/m 6,1 km/h (2 Bft) N-NW 339 0 min 0 min 0,000 mm 0,0 UV-I 0 W/m 4,2 C 3,8 C 14,5 km/h (3 Bft)
01.12.2022 07:00 5,2 C 5,1 C 5,2 C 94 % 1026,6 hPa 0,0 l/m 3,8 km/h (1 Bft) N-NO 29 0 min 0 min 0,000 mm 0,0 UV-I 0 W/m 4,3 C 5,2 C 8,0 km/h (2 Bft)
01.12.2022 06:45 5,1 C 5,1 C 5,2 C 94 % 1026,5 hPa 0,0 l/m 5,5 km/h (1 Bft) N 9 0 min 0 min 0,000 mm 0,0 UV-I 0 W/m 4,2 C 4,0 C 12,9 km/h (3 Bft)
01.12.2022 06:30 5,2 C 5,1 C 5,2 C 94 % 1026,4 hPa 0,0 l/m 4,4 km/h (1 Bft) N-NW 335 0 min 0 min 0,000 mm 0,0 UV-I 0 W/m 4,3 C 5,2 C 12,9 km/h (3 Bft)
01.12.2022 06:15 5,2 C 5,1 C 5,2 C 94 % 1026,5 hPa 0,0 l/m 3,8 km/h (1 Bft) N 355 0 min 0 min 0,000 mm 0,0 UV-I 0 W/m 4,3 C 5,2 C 8,0 km/h (2 Bft)
01.12.2022 06:00 5,1 C 5,1 C 5,2 C 94 % 1026,5 hPa 0,2 l/m 6,1 km/h (2 Bft) N 355 0 min 15 min 0,000 mm 0,0 UV-I 0 W/m 4,2 C 3,8 C 14,5 km/h (3 Bft)
01.12.2022 05:45 5,2 C 5,1 C 5,2 C 94 % 1026,5 hPa 0,0 l/m 4,2 km/h (1 Bft) NW 322 0 min 0 min 0,000 mm 0,0 UV-I 0 W/m 4,3 C 5,2 C 8,0 km/h (2 Bft)
01.12.2022 05:30 5,2 C 5,1 C 5,2 C 94 % 1026,5 hPa 0,0 l/m 5,0 km/h (1 Bft) NW 318 0 min 0 min 0,000 mm 0,0 UV-I 0 W/m 4,3 C 4,3 C 12,9 km/h (3 Bft)
01.12.2022 05:15 5,2 C 5,1 C 5,2 C 94 % 1026,5 hPa 0,0 l/m 5,4 km/h (1 Bft) N 355 0 min 0 min 0,000 mm 0,0 UV-I 0 W/m 4,3 C 4,2 C 14,5 km/h (3 Bft)
01.12.2022 05:00 5,2 C 5,2 C 5,2 C 94 % 1026,5 hPa 0,0 l/m 5,1 km/h (1 Bft) NW 315 0 min 0 min 0,000 mm 0,0 UV-I 0 W/m 4,3 C 4,3 C 17,7 km/h (3 Bft)
01.12.2022 04:45 5,2 C 5,2 C 5,2 C 94 % 1026,4 hPa 0,0 l/m 4,9 km/h (1 Bft) NW 318 0 min 0 min 0,000 mm 0,0 UV-I 0 W/m 4,3 C 4,3 C 9,7 km/h (2 Bft)
01.12.2022 04:30 5,2 C 5,2 C 5,2 C 94 % 1026,5 hPa 0,0 l/m 4,8 km/h (1 Bft) N-NW 342 0 min 0 min 0,000 mm 0,0 UV-I 0 W/m 4,3 C 4,4 C 14,5 km/h (3 Bft)
01.12.2022 04:15 5,2 C 5,2 C 5,2 C 94 % 1026,5 hPa 0,0 l/m 4,0 km/h (1 Bft) N-NW 346 0 min 0 min 0,000 mm 0,0 UV-I 0 W/m 4,3 C 5,2 C 8,0 km/h (2 Bft)
01.12.2022 04:00 5,2 C 5,2 C 5,2 C 94 % 1026,5 hPa 0,0 l/m 4,4 km/h (1 Bft) N-NW 348 0 min 0 min 0,000 mm 0,0 UV-I 0 W/m 4,3 C 5,2 C 11,3 km/h (2 Bft)
01.12.2022 03:45 5,2 C 5,2 C 5,2 C 94 % 1026,5 hPa 0,0 l/m 3,0 km/h (1 Bft) N 355 0 min 0 min 0,000 mm 0,0 UV-I 0 W/m 4,3 C 5,2 C 6,4 km/h (2 Bft)
01.12.2022 03:30 5,2 C 5,2 C 5,3 C 94 % 1026,5 hPa 0,0 l/m 4,0 km/h (1 Bft) N 355 0 min 0 min 0,000 mm 0,0 UV-I 0 W/m 4,3 C 5,2 C 12,9 km/h (3 Bft)
01.12.2022 03:15 5,2 C 5,2 C 5,3 C 94 % 1026,7 hPa 0,0 l/m 4,5 km/h (1 Bft) N 355 0 min 0 min 0,000 mm 0,0 UV-I 0 W/m 4,3 C 5,2 C 8,0 km/h (2 Bft)
01.12.2022 03:00 5,2 C 5,2 C 5,3 C 94 % 1026,5 hPa 0,0 l/m 4,2 km/h (1 Bft) N 11 0 min 0 min 0,000 mm 0,0 UV-I 0 W/m 4,3 C 5,2 C 8,0 km/h (2 Bft)
01.12.2022 02:45 5,3 C 5,2 C 5,3 C 94 % 1026,5 hPa 0,0 l/m 3,8 km/h (1 Bft) N-NW 335 0 min 0 min 0,000 mm 0,0 UV-I 0 W/m 4,4 C 5,3 C 9,7 km/h (2 Bft)
01.12.2022 02:30 5,3 C 5,3 C 5,3 C 94 % 1026,5 hPa 0,0 l/m 3,9 km/h (1 Bft) N 349 0 min 0 min 0,000 mm 0,0 UV-I 0 W/m 4,4 C 5,3 C 9,7 km/h (2 Bft)
01.12.2022 02:15 5,3 C 5,3 C 5,4 C 94 % 1026,4 hPa 0,0 l/m 4,9 km/h (1 Bft) NW 321 0 min 0 min 0,000 mm 0,0 UV-I 0 W/m 4,4 C 4,5 C 12,9 km/h (3 Bft)
01.12.2022 02:00 5,3 C 5,3 C 5,4 C 94 % 1026,3 hPa 0,0 l/m 4,1 km/h (1 Bft) N-NW 327 0 min 0 min 0,000 mm 0,0 UV-I 0 W/m 4,4 C 5,3 C 8,0 km/h (2 Bft)
01.12.2022 01:45 5,4 C 5,3 C 5,4 C 94 % 1026,2 hPa 0,0 l/m 3,9 km/h (1 Bft) NW 307 0 min 0 min 0,000 mm 0,0 UV-I 0 W/m 4,5 C 5,4 C 8,0 km/h (2 Bft)
01.12.2022 01:30 5,3 C 5,3 C 5,4 C 94 % 1026,3 hPa 0,0 l/m 4,8 km/h (1 Bft) N-NW 338 0 min 0 min 0,000 mm 0,0 UV-I 0 W/m 4,4 C 4,5 C 9,7 km/h (2 Bft)
01.12.2022 01:15 5,4 C 5,4 C 5,4 C 94 % 1026,3 hPa 0,0 l/m 4,2 km/h (1 Bft) N-NW 348 0 min 0 min 0,000 mm 0,0 UV-I 0 W/m 4,5 C 5,4 C 8,0 km/h (2 Bft)
01.12.2022 01:00 5,4 C 5,4 C 5,5 C 94 % 1026,3 hPa 0,0 l/m 3,6 km/h (1 Bft) N-NW 328 0 min 0 min 0,000 mm 0,0 UV-I 0 W/m 4,5 C 5,4 C 9,7 km/h (2 Bft)
01.12.2022 00:45 5,5 C 5,4 C 5,5 C 94 % 1026,3 hPa 0,0 l/m 3,7 km/h (1 Bft) N-NW 344 0 min 0 min 0,000 mm 0,0 UV-I 0 W/m 4,6 C 5,5 C 8,0 km/h (2 Bft)
01.12.2022 00:30 5,5 C 5,4 C 5,5 C 94 % 1026,3 hPa 0,0 l/m 3,6 km/h (1 Bft) NW 319 0 min 0 min 0,000 mm 0,0 UV-I 0 W/m 4,6 C 5,5 C 6,4 km/h (2 Bft)
01.12.2022 00:15 5,4 C 5,4 C 5,6 C 94 % 1026,4 hPa 0,0 l/m 3,2 km/h (1 Bft) N-NO 16 0 min 0 min 0,000 mm 0,0 UV-I 0 W/m 4,5 C 5,4 C 6,4 km/h (2 Bft)
01.12.2022 00:00 5,5 C 5,5 C 5,6 C 94 % 1026,4 hPa 0,0 l/m 3,2 km/h (1 Bft) NW 319 0 min 0 min 0,000 mm 0,0 UV-I 0 W/m 4,6 C 5,5 C 8,0 km/h (2 Bft)
30.11.2022 23:45 5,6 C 5,6 C 5,6 C 94 % 1026,4 hPa 0,0 l/m 3,8 km/h (1 Bft) N-NO 17 0 min 0 min 0,000 mm 0,0 UV-I 0 W/m 4,7 C 5,6 C 9,7 km/h (2 Bft)
30.11.2022 23:30 5,6 C 5,6 C 5,7 C 94 % 1026,3 hPa 0,0 l/m 4,4 km/h (1 Bft) N-NO 15 0 min 0 min 0,000 mm 0,0 UV-I 0 W/m 4,7 C 5,6 C 9,7 km/h (2 Bft)
30.11.2022 23:15 5,7 C 5,6 C 5,7 C 94 % 1026,2 hPa 0,0 l/m 5,0 km/h (1 Bft) N-NW 330 0 min 0 min 0,000 mm 0,0 UV-I 0 W/m 4,8 C 4,9 C 12,9 km/h (3 Bft)
30.11.2022 23:00 5,7 C 5,6 C 5,7 C 94 % 1026,3 hPa 0,0 l/m 3,7 km/h (1 Bft) N 5 0 min 0 min 0,000 mm 0,0 UV-I 0 W/m 4,8 C 5,7 C 9,7 km/h (2 Bft)
30.11.2022 22:45 5,7 C 5,7 C 5,7 C 94 % 1026,3 hPa 0,0 l/m 4,4 km/h (1 Bft) NW 319 0 min 0 min 0,000 mm 0,0 UV-I 0 W/m 4,8 C 5,7 C 12,9 km/h (3 Bft)
30.11.2022 22:30 5,7 C 5,7 C 5,7 C 94 % 1026,4 hPa 0,0 l/m 3,8 km/h (1 Bft) N 351 0 min 0 min 0,000 mm 0,0 UV-I 0 W/m 4,8 C 5,7 C 9,7 km/h (2 Bft)
30.11.2022 22:15 5,7 C 5,7 C 5,7 C 94 % 1026,3 hPa 0,0 l/m 3,4 km/h (1 Bft) N-NW 336 0 min 0 min 0,000 mm 0,0 UV-I 0 W/m 4,8 C 5,7 C 8,0 km/h (2 Bft)
30.11.2022 22:00 5,7 C 5,7 C 5,8 C 93 % 1026,2 hPa 0,0 l/m 2,8 km/h (1 Bft) NW 325 0 min 0 min 0,000 mm 0,0 UV-I 0 W/m 4,7 C 5,7 C 6,4 km/h (2 Bft)
30.11.2022 21:45 5,7 C 5,7 C 5,7 C 93 % 1026,3 hPa 0,0 l/m 2,4 km/h (1 Bft) N 9 0 min 0 min 0,000 mm 0,0 UV-I 0 W/m 4,7 C 5,7 C 6,4 km/h (2 Bft)
30.11.2022 21:30 5,7 C 5,7 C 5,8 C 93 % 1026,2 hPa 0,0 l/m 2,6 km/h (1 Bft) N-NW 340 0 min 0 min 0,000 mm 0,0 UV-I 0 W/m 4,7 C 5,7 C 6,4 km/h (2 Bft)
30.11.2022 21:15 5,7 C 5,7 C 5,8 C 93 % 1026,1 hPa 0,0 l/m 2,3 km/h (1 Bft) NW 312 0 min 0 min 0,000 mm 0,0 UV-I 0 W/m 4,7 C 5,7 C 4,8 km/h (1 Bft)
30.11.2022 21:00 5,7 C 5,7 C 5,8 C 93 % 1026,1 hPa 0,0 l/m 4,1 km/h (1 Bft) N-NW 335 0 min 0 min 0,000 mm 0,0 UV-I 0 W/m 4,7 C 5,7 C 8,0 km/h (2 Bft)
30.11.2022 20:45 5,7 C 5,7 C 5,8 C 93 % 1026,1 hPa 0,0 l/m 3,8 km/h (1 Bft) NW 326 0 min 0 min 0,000 mm 0,0 UV-I 0 W/m 4,7 C 5,7 C 8,0 km/h (2 Bft)
30.11.2022 20:30 5,7 C 5,7 C 5,8 C 93 % 1026,0 hPa 0,0 l/m 3,0 km/h (1 Bft) N-NW 330 0 min 0 min 0,000 mm 0,0 UV-I 0 W/m 4,7 C 5,7 C 6,4 km/h (2 Bft)
30.11.2022 20:15 5,7 C 5,7 C 5,8 C 93 % 1025,9 hPa 0,0 l/m 3,5 km/h (1 Bft) N-NW 338 0 min 0 min 0,000 mm 0,0 UV-I 0 W/m 4,7 C 5,7 C 8,0 km/h (2 Bft)
30.11.2022 20:00 5,8 C 5,7 C 5,8 C 93 % 1025,9 hPa 0,0 l/m 3,1 km/h (1 Bft) N 355 0 min 0 min 0,000 mm 0,0 UV-I 0 W/m 4,8 C 5,8 C 8,0 km/h (2 Bft)
30.11.2022 19:45 5,8 C 5,7 C 5,8 C 93 % 1025,8 hPa 0,0 l/m 3,9 km/h (1 Bft) NW 324 0 min 0 min 0,000 mm 0,0 UV-I 0 W/m 4,8 C 5,8 C 9,7 km/h (2 Bft)
30.11.2022 19:30 5,8 C 5,7 C 5,8 C 93 % 1025,8 hPa 0,0 l/m 4,2 km/h (1 Bft) N-NW 343 0 min 0 min 0,000 mm 0,0 UV-I 0 W/m 4,8 C 5,8 C 8,0 km/h (2 Bft)
30.11.2022 19:15 5,8 C 5,7 C 5,8 C 93 % 1025,7 hPa 0,0 l/m 4,2 km/h (1 Bft) N-NW 327 0 min 0 min 0,000 mm 0,0 UV-I 0 W/m 4,8 C 5,8 C 8,0 km/h (2 Bft)
30.11.2022 19:00 5,8 C 5,7 C 5,8 C 93 % 1025,7 hPa 0,0 l/m 4,6 km/h (1 Bft) NW 325 0 min 0 min 0,000 mm 0,0 UV-I 0 W/m 4,8 C 5,1 C 9,7 km/h (2 Bft)
30.11.2022 18:45 5,8 C 5,7 C 5,8 C 93 % 1025,6 hPa 0,0 l/m 4,0 km/h (1 Bft) N 355 0 min 0 min 0,000 mm 0,0 UV-I 0 W/m 4,8 C 5,8 C 8,0 km/h (2 Bft)
30.11.2022 18:30 5,8 C 5,8 C 5,8 C 93 % 1025,5 hPa 0,0 l/m 3,9 km/h (1 Bft) NW 317 0 min 0 min 0,000 mm 0,0 UV-I 0 W/m 4,8 C 5,8 C 8,0 km/h (2 Bft)
30.11.2022 18:15 5,8 C 5,8 C 5,8 C 93 % 1025,5 hPa 0,0 l/m 3,8 km/h (1 Bft) N-NW 336 0 min 0 min 0,000 mm 0,0 UV-I 0 W/m 4,8 C 5,8 C 8,0 km/h (2 Bft)
30.11.2022 18:00 5,8 C 5,8 C 5,8 C 92 % 1025,4 hPa 0,0 l/m 4,1 km/h (1 Bft) N 5 0 min 0 min 0,000 mm 0,0 UV-I 0 W/m 4,6 C 5,8 C 8,0 km/h (2 Bft)
_ Min-Zeit 09:00 09:00 09:15 16:30 18:00 - 21:15 - - - - - - - 16:30 14:00 21:15
Minimum _ 4,7 C 4,7 C 4,8 C 87 % 1025,4 hPa - 2,3 km/h (1 Bft) - - - - - - - 2,9 C 3,2 C 4,8 km/h (1 Bft)
_ Max-Zeit 18:00 18:00 18:00 07:30 10:00 06:00 14:00 - - 18:00 06:00 15:00 18:00 12:45 22:15 18:00 05:00
Maximum _ 5,8 C 5,8 C 5,8 C 95 % 1027,5 hPa 0,2 l/m 8,5 km/h
N (2 Bft)
- - 0 min 15 min 0,026 mm 0,0 UV-I 40 W/m 4,8 C 5,8 C 17,7 km/h
W-NW (3 Bft)
Durchschnitt _ 5,3 C 5,3 C 5,4 C 93 % 1026,4 hPa #0,2 l/m 4,5 km/h (1 Bft) N-NW - #0 min. #15 min. #0,051 mm 0,0 UV-I 20 W/m 4,3 C 4,9 C 10,8 km/h (2 Bft)